Regional Weather Roundup
Issued by NWS

Home | Current Version | Previous Version | Text Only | Print | Product List | Glossary Off
Versions: 1 2 3 4 5 6 7 8 9 10 11 12 13 14 15 16 17 18 19 20 21 22 23 24 25 26 27

000
ASUS45 KPSR 290110
RWRAZ

ARIZONA HOURLY REGIONAL WEATHER ROUNDUP
NATIONAL WEATHER SERVICE PHOENIX AZ
600 PM MST SAT MAY 28 2016

NOTE: FAIR INDICATES FEW OR NO CLOUDS BELOW 12,000 FEET WITH NO
SIGNIFICANT WEATHER AND/OR OBSTRUCTIONS TO VISIBILITY.

AZZ001>003-036-290200-
NORTHWEST ARIZONA

CITY           SKY/WX    TMP DP  RH WIND       PRES   REMARKS
KINGMAN        SUNNY     85  26  11 W17       29.86F
$$

AZZ004>008-015-016-018-290200-
NORTH CENTRAL ARIZONA

CITY           SKY/WX    TMP DP  RH WIND       PRES   REMARKS
GRAND CANYON   CLOUDY    68  28  22 SE12G23   30.09S
WILLIAMS       MOSUNNY   72  16  12 S12       30.14S
PRESCOTT       SUNNY     77  19  11 S8        29.98R
FLAGSTAFF      MOSUNNY   67  21  17 VRB7      30.09S
PAYSON         SUNNY     79  19  11 SW9G16    30.00S
PAGE           MOSUNNY   83  27  13 N9        29.92S
$$

AZZ009>014-017-290200-
NORTHEAST ARIZONA

CITY           SKY/WX    TMP DP  RH WIND       PRES   REMARKS
WINSLOW        SUNNY     81  16   9 S9        29.95R
SAINT JOHNS    MOSUNNY   76  19  11 NW8       29.98S
WINDOW ROCK    MOSUNNY   74  22  14 N5        30.08S
SHOW LOW       SUNNY     72  14  11 SW18      30.07R
$$

AZZ023-290200-
GREATER PHOENIX AREA

CITY           SKY/WX    TMP DP  RH WIND       PRES   REMARKS
PHOENIX        MOSUNNY   96  24   7 S10       29.71S
BUCKEYE        SUNNY     93  25   8 CALM      29.74S
GLENDALE       MOSUNNY   97  19   6 SE3       29.73F
LUKE AFB       SUNNY     95  22   7 SE1       29.71S
DEER VALLEY    SUNNY     92  26   9 VRB5      29.74S
SCOTTSDALE     SUNNY     93  25   8 W7        29.75F
MESA-FALCON    SUNNY    N/A N/A N/A S8        29.72S
MESA-GATEWAY   SUNNY     93  25   8 W12       29.75S
$$

AZZ027-028-290200-
SOUTHWEST MARICOPA COUNTY AND PINAL COUNTY

CITY           SKY/WX    TMP DP  RH WIND       PRES   REMARKS
CASA GRANDE    SUNNY     93  30  10 SW10      29.76S
GILA BEND      FAIR      94  27   9 W12       29.72R
$$

AZZ503-504-507>509-290200-
SOUTHEAST ARIZONA

CITY           SKY/WX    TMP DP  RH WIND       PRES   REMARKS
TUCSON         SUNNY     91  10   5 SW15      29.84R
DAVIS-MONTHAN  SUNNY     91  11   5 SW15      29.83R
RYAN FIELD     SUNNY     91  12   5 SW16G22   29.83R
NOGALES        SUNNY     84   5   5 SW18      29.94R
SIERRA VISTA   SUNNY     82   0   4 S15       29.98R
DOUGLAS        SUNNY     85  -3   3 S16G28    29.95R
SAFFORD        SUNNY     91   9   4 S9        29.82S
$$

AZZ020-021-025-026-031-290200-
SOUTHWEST ARIZONA

CITY           SKY/WX    TMP DP  RH WIND       PRES   REMARKS
YUMA           SUNNY     91  31  11 S16       29.73S
$$

CAZ031-033-041-043-047-048-061-290200-
SOUTHERN CALIFORNIA

CITY           SKY/WX    TMP DP  RH WIND       PRES   REMARKS
DOWNTOWN L.A.  PTSUNNY   64  55  72 W8        29.88R
L.A. AIRPORT   CLOUDY    62  54  74 W13       29.89R
SAN DIEGO      CLOUDY    64  55  72 SW8       29.92S
BURBANK        SUNNY     67  55  65 S12       29.85R
ONTARIO        MOSUNNY   72  53  51 W15       29.84R
RIVERSIDE      SUNNY     73  52  47 W13G22    29.84R
PALM SPRINGS   SUNNY     92  26   9 E8        29.73S
EL CENTRO NAS  SUNNY     94  31  10 SE16      29.70S
IMPERIAL       SUNNY     95  24   8 SE20      29.69S
BLYTHE         SUNNY     95  34  11 S18       29.70F
NEEDLES        SUNNY     96  30   9 SW8G20    29.71S
$$

NVZ020-UTZ003-290200-
SOUTHERN NEVADA-UTAH

CITY           SKY/WX    TMP DP  RH WIND       PRES   REMARKS
LAS VEGAS      PTSUNNY   91  23   8 S8        29.74S
SALT LAKE CITY MOSUNNY   74  37  26 N9        30.00S
$$

NMZ009-TXZ055-290200-
NEW MEXICO-WEST TEXAS

CITY           SKY/WX    TMP DP  RH WIND       PRES   REMARKS
ALBUQUERQUE    MOSUNNY   80  20  10 SW12      30.02S
EL PASO        MOSUNNY   89  -1   3 W12       29.92S
$$


........................KEY........................
SKY/WX - SKY CONDITION/WEATHER
TMP    - TEMPERATURE IN FAHRENHEIT
DP     - DEW POINT IN FAHRENHEIT
RH     - RELATIVE HUMIDITY IN PERCENT
WIND   - DIRECTION AND SPEED IN MILES PER HOUR (MPH)
VRB    - VARIABLE WIND DIRECTION
PRES   - MEAN SEA LEVEL PRESSURE IN INCHES OF MERCURY
         F - FALLING PRESSURE   R - RISING PRESSURE
         S - STEADY PRESSURE
VSB    - VISIBILITY IN MILES
HX     - HEAT INDEX IN FAHRENHEIT
WCI    - WIND CHILL INDEX IN FAHRENHEIT
TC     - TEMPERATURE IN CELSIUS WHICH IS ALSO KNOWN AS
         TEMPERATURE IN CENTIGRADE
AFB    - AIR FORCE BASE
         LUKE AFB IS LUKE AIR FORCE BASE
         DAVIS-MONTHAN IS DAVIS-MONTHAN AIR FORCE BASE
NAS    - NAVAL AIR STATION
         EL CENTRO NAS IS EL CENTRO NAVAL AIR STATION
N/A    - NOT AVAILABLE





USA.gov is the U.S. government's official web portal to all federal, state and local government web resources and services.